Location: Córrego Montividiu
(13.2496°S, 48.8603°W)
Time: 10:46:51
(UTC+00:00)

KORONAS-FOTON - Pass Details

Date: 11 March 2026
Orbit: 426 x 440 km, 82.4° (Epoch: 22 April)

Event Time Altitude Azimuth Distance (km) Brightness Sun altitude
Rises 22:29:38 0° 344° (NNW) 2,372 7.3 -14.8°
Maximum altitude 22:34:51 41° 265° (W) 632 4.8 -16.1°
Drops below altitude 10° 22:38:02 10° 193° (SSW) 1,538 6.4 -16.8°
Sets 22:40:10 0° 185° (S) 2,414 7.4 -17.3°
